Weather History for Roseau, MN

Change the Weather History Date:

Tuesday, March 19, 2013

  Actual Average Record
Temperature  
Mean Temperature 4 °F -  
Max Temperature 14 °F 34 °F 77 °F (2012)
Min Temperature -5 °F 13 °F -24 °F (1975)
Degree Days  
Heating Degree Days 60    
Moisture  
Dew Point -4 °F    
Average Humidity 67    
Maximum Humidity 79    
Minimum Humidity 57    
Precipitation  
Precipitation 0.00 in - - ()
Sea Level Pressure  
Sea Level Pressure 30.04 in    
Wind  
Wind Speed 13 mph (WNW)    
Max Wind Speed 20 mph    
Max Gust Speed 25 mph    
Visibility 9 miles    
Events      
Averages and records for this station are not official NWS values.
T = Trace of Precipitation, MM = Missing Value Source: NWS Daily Summary

Daily Weather History Graph

Daily Weather History Graph

Search for Another Location

Airport:

Trip Planner

Search our weather history database for the weather conditions in past years. The results will help you decide how hot, cold, wet, or windy it might be!

Date:

Astronomy

Mar. 19, 2013 Rise Set
Actual Time 7:27 AM CDT 7:34 PM CDT
Civil Twilight 6:55 AM CDT 8:06 PM CDT
Nautical Twilight 6:18 AM CDT 8:43 PM CDT
Astronomical Twilight 5:40 AM CDT 9:21 PM CDT
Moon 11:50 AM CDT (3/19) 2:50 AM CDT (3/19)
Length of Visible Light 13h 10m
Length of Day
12h 07m
Waxing Crescent, 50% of the Moon is Illuminated
Mar 19
Waxing Crescent
Mar 19
First Quarter
Mar 27
Full
Apr 2
Last Quarter
Apr 10
New

Hourly Weather History & Observations

Time (CDT) Temp. Windchill Dew Point Humidity Pressure Visibility Wind Dir Wind Speed Gust Speed Precip Events Conditions
12:14 AM 8.6 °F -8.3 °F 1.4 °F 73% 29.84 in 10.0 mi NW 15.0 mph - N/A   Clear
12:34 AM 6.8 °F -10.7 °F 1.4 °F 79% 29.85 in 10.0 mi NW 15.0 mph - N/A   Clear
12:54 AM 6.8 °F -9.3 °F -0.4 °F 72% 29.85 in 10.0 mi NW 12.7 mph - N/A   Clear
1:14 AM 5.0 °F -10.0 °F -0.4 °F 78% 29.85 in 10.0 mi WNW 10.4 mph - N/A   Clear
1:34 AM 5.0 °F -10.0 °F -2.2 °F 72% 29.86 in 10.0 mi WNW 10.4 mph - N/A   Clear
1:54 AM 3.2 °F -13.1 °F -2.2 °F 78% 29.86 in 10.0 mi WNW 11.5 mph - N/A   Clear
2:14 AM 3.2 °F -13.1 °F -2.2 °F 78% 29.87 in 10.0 mi WNW 11.5 mph - N/A   Clear
2:34 AM 3.2 °F -13.1 °F -4.0 °F 72% 29.87 in 10.0 mi WNW 11.5 mph - N/A   Clear
2:54 AM 1.4 °F -14.5 °F -5.8 °F 72% 29.88 in 10.0 mi WNW 10.4 mph - N/A   Clear
3:14 AM 1.4 °F -14.5 °F -5.8 °F 72% 29.88 in 10.0 mi WNW 10.4 mph - N/A   Clear
3:34 AM 1.4 °F -15.3 °F -5.8 °F 72% 29.89 in 10.0 mi WNW 11.5 mph - N/A   Clear
3:54 AM 1.4 °F -15.3 °F -5.8 °F 72% 29.89 in 10.0 mi WNW 11.5 mph - N/A   Clear
4:14 AM 1.4 °F -15.3 °F -5.8 °F 72% 29.90 in 10.0 mi WNW 11.5 mph - N/A   Clear
4:34 AM 1.4 °F -14.5 °F -5.8 °F 72% 29.91 in 10.0 mi WNW 10.4 mph - N/A   Clear
4:54 AM 1.4 °F -15.3 °F -5.8 °F 72% 29.92 in 10.0 mi WNW 11.5 mph - N/A   Clear
5:14 AM -0.4 °F -16.7 °F -7.6 °F 72% 29.92 in 10.0 mi WNW 10.4 mph - N/A   Clear
5:34 AM -0.4 °F -15.7 °F -7.6 °F 72% 29.93 in 10.0 mi WNW 9.2 mph - N/A   Clear
5:54 AM -2.2 °F -18.9 °F -7.6 °F 78% 29.94 in 10.0 mi West 10.4 mph - N/A   Clear
6:15 AM -2.2 °F -18.0 °F -9.4 °F 71% 29.95 in 10.0 mi WNW 9.2 mph - N/A   Clear
6:34 AM -2.2 °F -18.0 °F -9.4 °F 71% 29.95 in 10.0 mi West 9.2 mph - N/A   Clear
6:54 AM -2.2 °F -18.9 °F -9.4 °F 71% 29.96 in 10.0 mi West 10.4 mph - N/A   Clear
7:14 AM -4.0 °F -22.1 °F -11.2 °F 71% 29.97 in 10.0 mi West 11.5 mph - N/A   Clear
7:34 AM -5.8 °F -24.4 °F -11.2 °F 77% 29.98 in 10.0 mi West 11.5 mph - N/A   Clear
7:54 AM -5.8 °F -24.4 °F -11.2 °F 77% 29.99 in 10.0 mi West 11.5 mph - N/A   Clear
8:14 AM -5.8 °F -26.0 °F -11.2 °F 77% 30.00 in 10.0 mi West 13.8 mph 18.4 mph N/A   Clear
8:35 AM -4.0 °F -21.2 °F -11.2 °F 71% 30.01 in 10.0 mi West 10.4 mph 18.4 mph N/A   Clear
8:54 AM -4.0 °F -21.2 °F -9.4 °F 78% 30.02 in 10.0 mi West 10.4 mph - N/A   Clear
9:14 AM -2.2 °F -20.7 °F -9.4 °F 71% 30.03 in 10.0 mi West 12.7 mph - N/A   Clear
9:35 AM -2.2 °F -18.9 °F -9.4 °F 71% 30.03 in 10.0 mi West 10.4 mph - N/A   Clear
9:54 AM -2.2 °F -19.9 °F -9.4 °F 71% 30.04 in 10.0 mi West 11.5 mph - N/A   Clear
10:14 AM -0.4 °F -17.6 °F -7.6 °F 72% 30.05 in 10.0 mi West 11.5 mph - N/A   Clear
10:35 AM 1.4 °F -16.1 °F -7.6 °F 66% 30.05 in 10.0 mi West 12.7 mph - N/A   Clear
10:54 AM 1.4 °F -16.9 °F -5.8 °F 72% 30.05 in 10.0 mi West 13.8 mph - N/A   Clear
11:14 AM 3.2 °F -13.9 °F -4.0 °F 72% 30.06 in 7.0 mi West 12.7 mph - N/A   Clear
11:35 AM 6.8 °F -10.7 °F -2.2 °F 67% 30.06 in 7.0 mi West 15.0 mph - N/A   Clear
11:54 AM 8.6 °F -7.7 °F -0.4 °F 67% 30.06 in 10.0 mi West 13.8 mph 20.7 mph N/A   Clear
12:14 PM 8.6 °F -8.3 °F 1.4 °F 73% 30.06 in 10.0 mi West 15.0 mph 19.6 mph N/A   Clear
12:35 PM 10.4 °F -5.4 °F 1.4 °F 67% 30.06 in 10.0 mi West 13.8 mph 19.6 mph N/A   Clear
12:54 PM 12.2 °F -3.1 °F 1.4 °F 62% 30.06 in 7.0 mi West 13.8 mph 19.6 mph N/A   Clear
1:14 PM 12.2 °F -2.5 °F 1.4 °F 62% 30.06 in 3.0 mi WNW 12.7 mph 19.6 mph N/A   Haze
1:34 PM 12.2 °F -2.5 °F 3.2 °F 67% 30.06 in 7.0 mi West 12.7 mph 20.7 mph N/A   Clear
1:54 PM 14.0 °F -1.4 °F 1.4 °F 57% 30.06 in 5.0 mi WNW 15.0 mph 21.9 mph N/A   Haze
2:15 PM 14.0 °F -1.4 °F 1.4 °F 57% 30.07 in 5.0 mi WNW 15.0 mph 24.2 mph N/A   Haze
2:34 PM 14.0 °F -2.0 °F 1.4 °F 57% 30.07 in 3.0 mi WNW 16.1 mph - N/A   Haze
2:54 PM 14.0 °F -3.0 °F 1.4 °F 57% 30.07 in 2.5 mi WNW 18.4 mph 21.9 mph N/A   Haze
3:15 PM 14.0 °F -2.0 °F 1.4 °F 57% 30.07 in 3.0 mi WNW 16.1 mph - N/A   Haze
3:34 PM 14.0 °F -2.5 °F 1.4 °F 57% 30.08 in 7.0 mi WNW 17.3 mph - N/A   Clear
3:54 PM 14.0 °F -3.4 °F 1.4 °F 57% 30.09 in 5.0 mi WNW 19.6 mph - N/A   Haze
4:15 PM 12.2 °F -5.8 °F 1.4 °F 62% 30.09 in 5.0 mi WNW 19.6 mph 25.3 mph N/A   Haze
4:34 PM 12.2 °F -5.8 °F 1.4 °F 62% 30.10 in 5.0 mi WNW 19.6 mph 24.2 mph N/A   Haze
4:54 PM 12.2 °F -4.8 °F 1.4 °F 62% 30.11 in 5.0 mi WNW 17.3 mph 24.2 mph N/A   Haze
5:15 PM 12.2 °F -5.3 °F 1.4 °F 62% 30.12 in 7.0 mi WNW 18.4 mph 21.9 mph N/A   Clear
5:34 PM 12.2 °F -5.3 °F 1.4 °F 62% 30.14 in 7.0 mi WNW 18.4 mph - N/A   Clear
5:54 PM 12.2 °F -4.8 °F 1.4 °F 62% 30.14 in 7.0 mi WNW 17.3 mph - N/A   Clear
6:14 PM 12.2 °F -2.5 °F 1.4 °F 62% 30.15 in 10.0 mi WNW 12.7 mph - N/A   Clear
6:34 PM 12.2 °F -3.1 °F -0.4 °F 57% 30.16 in 10.0 mi WNW 13.8 mph 19.6 mph N/A   Clear
6:55 PM 10.4 °F -4.8 °F -0.4 °F 62% 30.16 in 10.0 mi WNW 12.7 mph 18.4 mph N/A   Clear
7:14 PM 10.4 °F -4.1 °F -0.4 °F 62% 30.17 in 10.0 mi WNW 11.5 mph - N/A   Clear
7:35 PM 8.6 °F -5.5 °F -2.2 °F 62% 30.17 in 10.0 mi WNW 10.4 mph - N/A   Clear
7:54 PM 8.6 °F -6.3 °F -2.2 °F 62% 30.17 in 10.0 mi WNW 11.5 mph - N/A   Clear
8:14 PM 8.6 °F -6.3 °F -2.2 °F 62% 30.17 in 10.0 mi WNW 11.5 mph - N/A   Clear
8:35 PM 6.8 °F -6.9 °F -4.0 °F 61% 30.18 in 10.0 mi WNW 9.2 mph 17.3 mph N/A   Clear
8:54 PM 6.8 °F -6.9 °F -4.0 °F 61% 30.18 in 10.0 mi WNW 9.2 mph - N/A   Clear
9:14 PM 6.8 °F -6.9 °F -4.0 °F 61% 30.18 in 10.0 mi WNW 9.2 mph - N/A   Clear
9:34 PM 6.8 °F -7.8 °F -4.0 °F 61% 30.18 in 10.0 mi WNW 10.4 mph - N/A   Clear
9:54 PM 5.0 °F -9.1 °F -4.0 °F 66% 30.18 in 10.0 mi WNW 9.2 mph - N/A   Clear
10:14 PM 5.0 °F -8.1 °F -5.8 °F 61% 30.18 in 10.0 mi WNW 8.1 mph - N/A   Clear
10:34 PM 5.0 °F -9.1 °F -5.8 °F 61% 30.19 in 10.0 mi WNW 9.2 mph - N/A   Clear
10:54 PM 5.0 °F -9.1 °F -5.8 °F 61% - 10.0 mi WNW 9.2 mph - N/A   Clear
11:14 PM 5.0 °F -9.1 °F -5.8 °F 61% 30.19 in 10.0 mi WNW 9.2 mph - N/A   Clear
11:34 PM 3.2 °F -11.3 °F -5.8 °F 66% 30.19 in 10.0 mi WNW 9.2 mph - N/A   Clear
11:54 PM 3.2 °F -11.3 °F -7.6 °F 61% 30.20 in 10.0 mi WNW 9.2 mph - N/A   Clear